カタログに戻る

LDPE-3A DEB

運用中GEO
NORAD 55267·DEBRIS·🇺🇸 United States

打ち上げ Jan 15, 2023 から Cape Canaveral Space Force Station

Loading…

TLE

最新Source: Space-Track

元期: Sep 13, 2026, 21:39 UTC

1 55267U 23008E   26256.90277326 -.00000129  00000-0  00000-0 0  9998
2 55267   3.3735  76.9842 0003858 190.0939 170.3059  1.02218218  8805

AllMySatでLDPE-3A DEBをリアルタイム追跡

Download on the App Store